Time,TemperatureF,DewpointF,PressureIn,WindDirection,WindDirectionDegrees,WindSpeedMPH,WindSpeedGustMPH,Humidity,HourlyPrecipIn,Conditions,Clouds,dailyrainin,SoftwareType,DateUTC
2013-01-10 00:11:00,34.5,28.0,30.02,NW,310,12.0,21.0,78,0.00,,,0.00,weatherlink.com 1.10,2013-01-10 05:11:00,
2013-01-10 00:26:00,33.4,29.0,30.04,NW,308,6.0,20.0,83,0.00,,,0.00,weatherlink.com 1.10,2013-01-10 05:26:00,
2013-01-10 00:56:00,32.7,28.0,30.07,NW,309,7.0,22.0,81,0.00,,,0.00,weatherlink.com 1.10,2013-01-10 05:56:00,
2013-01-10 01:11:00,32.6,27.0,30.08,WNW,297,4.0,15.0,80,0.00,,,0.00,weatherlink.com 1.10,2013-01-10 06:11:00,
2013-01-10 01:26:00,32.7,27.0,30.10,ENE,64,5.0,16.0,79,0.00,,,0.00,weatherlink.com 1.10,2013-01-10 06:26:00,
2013-01-10 01:41:00,32.7,27.0,30.11,SW,231,4.0,19.0,78,0.00,,,0.00,weatherlink.com 1.10,2013-01-10 06:41:00,
2013-01-10 01:56:00,32.7,26.0,30.12,WNW,300,5.0,17.0,77,0.00,,,0.00,weatherlink.com 1.10,2013-01-10 06:56:00,
2013-01-10 02:11:00,32.8,26.0,30.13,WNW,282,1.0,21.0,75,0.00,,,0.00,weatherlink.com 1.10,2013-01-10 07:11:00,
2013-01-10 02:26:00,33.0,25.0,30.14,West,264,4.0,17.0,72,0.00,,,0.00,weatherlink.com 1.10,2013-01-10 07:26:00,
2013-01-10 02:41:00,33.0,24.0,30.16,NW,326,5.0,20.0,70,0.00,,,0.00,weatherlink.com 1.10,2013-01-10 07:41:00,
2013-01-10 02:57:00,32.9,24.0,30.17,West,278,4.0,15.0,71,0.00,,,0.00,weatherlink.com 1.10,2013-01-10 07:57:00,
2013-01-10 03:12:00,32.7,24.0,30.18,NW,310,11.0,18.0,71,0.00,,,0.00,weatherlink.com 1.10,2013-01-10 08:12:00,
2013-01-10 03:27:00,32.6,23.0,30.19,South,191,2.0,19.0,69,0.00,,,0.00,weatherlink.com 1.10,2013-01-10 08:27:00,
2013-01-10 03:42:00,32.5,23.0,30.21,West,266,7.0,17.0,69,0.00,,,0.00,weatherlink.com 1.10,2013-01-10 08:42:00,
2013-01-10 03:57:00,32.3,23.0,30.22,NW,321,9.0,15.0,69,0.00,,,0.00,weatherlink.com 1.10,2013-01-10 08:57:00,
2013-01-10 04:12:00,32.3,24.0,30.23,WSW,253,7.0,18.0,70,0.00,,,0.00,weatherlink.com 1.10,2013-01-10 09:12:00,
2013-01-10 04:27:00,32.1,23.0,30.24,NW,308,17.0,17.0,70,0.00,,,0.00,weatherlink.com 1.10,2013-01-10 09:27:00,
2013-01-10 04:42:00,31.8,23.0,30.24,WNW,294,7.0,19.0,70,0.00,,,0.00,weatherlink.com 1.10,2013-01-10 09:42:00,
2013-01-10 04:57:00,31.6,23.0,30.25,SW,217,4.0,13.0,71,0.00,,,0.00,weatherlink.com 1.10,2013-01-10 09:57:00,
2013-01-10 05:12:00,31.1,23.0,30.25,NW,304,8.0,14.0,71,0.00,,,0.00,weatherlink.com 1.10,2013-01-10 10:12:00,
2013-01-10 05:27:00,31.0,23.0,30.26,NW,311,4.0,11.0,72,0.00,,,0.00,weatherlink.com 1.10,2013-01-10 10:27:00,
2013-01-10 05:42:00,30.8,23.0,30.27,WSW,249,3.0,10.0,72,0.00,,,0.00,weatherlink.com 1.10,2013-01-10 10:42:00,
2013-01-10 05:57:00,30.3,23.0,30.27,WNW,301,1.0,15.0,73,0.00,,,0.00,weatherlink.com 1.10,2013-01-10 10:57:00,
2013-01-10 06:12:00,30.0,23.0,30.28,WNW,288,2.0,9.0,74,0.00,,,0.00,weatherlink.com 1.10,2013-01-10 11:12:00,
2013-01-10 06:27:00,30.0,23.0,30.29,West,281,1.0,12.0,75,0.00,,,0.00,weatherlink.com 1.10,2013-01-10 11:27:00,
2013-01-10 06:42:00,29.6,23.0,30.30,NW,304,1.0,10.0,76,0.00,,,0.00,weatherlink.com 1.10,2013-01-10 11:42:00,
2013-01-10 06:57:00,29.2,23.0,30.32,NW,311,2.0,9.0,77,0.00,,,0.00,weatherlink.com 1.10,2013-01-10 11:57:00,
2013-01-10 07:12:00,29.3,23.0,30.33,WNW,297,7.0,12.0,77,0.00,,,0.00,weatherlink.com 1.10,2013-01-10 12:12:00,
2013-01-10 07:27:00,29.6,23.0,30.35,WNW,287,1.0,12.0,77,0.00,,,0.00,weatherlink.com 1.10,2013-01-10 12:27:00,
2013-01-10 07:42:00,29.6,24.0,30.36,NE,34,6.0,11.0,78,0.00,,,0.00,weatherlink.com 1.10,2013-01-10 12:42:00,
2013-01-10 07:58:00,29.7,24.0,30.37,NW,323,11.0,12.0,78,0.00,,,0.00,weatherlink.com 1.10,2013-01-10 12:58:00,
2013-01-10 08:13:00,29.9,24.0,30.38,NW,323,4.0,15.0,77,0.00,,,0.00,weatherlink.com 1.10,2013-01-10 13:13:00,
2013-01-10 08:28:00,30.0,24.0,30.38,NNW,333,3.0,11.0,77,0.00,,,0.00,weatherlink.com 1.10,2013-01-10 13:28:00,
2013-01-10 08:43:00,29.9,24.0,30.38,NNE,25,1.0,11.0,77,0.00,,,0.00,weatherlink.com 1.10,2013-01-10 13:43:00,
2013-01-10 08:58:00,30.1,24.0,30.39,WNW,297,5.0,13.0,77,0.00,,,0.00,weatherlink.com 1.10,2013-01-10 13:58:00,
2013-01-10 09:13:00,30.3,24.0,30.40,WNW,302,5.0,12.0,76,0.00,,,0.00,weatherlink.com 1.10,2013-01-10 14:13:00,
2013-01-10 09:28:00,30.4,24.0,30.40,North,357,6.0,13.0,76,0.00,,,0.00,weatherlink.com 1.10,2013-01-10 14:28:00,
2013-01-10 09:43:00,30.6,24.0,30.41,NW,316,5.0,11.0,76,0.00,,,0.00,weatherlink.com 1.10,2013-01-10 14:43:00,
2013-01-10 09:58:00,30.6,24.0,30.41,WNW,284,5.0,15.0,76,0.00,,,0.00,weatherlink.com 1.10,2013-01-10 14:58:00,
2013-01-10 10:13:00,30.6,24.0,30.43,WSW,249,1.0,7.0,76,0.00,,,0.00,weatherlink.com 1.10,2013-01-10 15:13:00,
2013-01-10 10:43:00,30.8,24.0,30.43,WSW,246,4.0,15.0,75,0.00,,,0.00,weatherlink.com 1.10,2013-01-10 15:43:00,
2013-01-10 10:58:00,31.0,24.0,30.44,WNW,295,8.0,11.0,76,0.00,,,0.00,weatherlink.com 1.10,2013-01-10 15:58:00,
2013-01-10 11:13:00,30.9,24.0,30.44,WNW,290,13.0,21.0,76,0.00,,,0.00,weatherlink.com 1.10,2013-01-10 16:13:00,
2013-01-10 11:28:00,30.9,24.0,30.43,WNW,291,11.0,14.0,75,0.00,,,0.00,weatherlink.com 1.10,2013-01-10 16:28:00,
2013-01-10 11:43:00,31.2,24.0,30.43,NW,323,6.0,-999.0,75,-99.99,,,0.00,weatherlink.com 1.10,2013-01-10 16:43:00,
2013-01-10 11:58:00,31.4,24.0,30.43,West,272,6.0,17.0,73,0.00,,,0.00,weatherlink.com 1.10,2013-01-10 16:58:00,
2013-01-10 12:13:00,31.2,24.0,30.44,WNW,283,3.0,12.0,74,0.00,,,0.00,weatherlink.com 1.10,2013-01-10 17:13:00,
2013-01-10 12:28:00,31.4,24.0,30.43,WNW,286,8.0,13.0,75,0.00,,,0.00,weatherlink.com 1.10,2013-01-10 17:28:00,
2013-01-10 12:43:00,32.0,25.0,30.43,West,262,4.0,12.0,74,0.00,,,0.00,weatherlink.com 1.10,2013-01-10 17:43:00,
2013-01-10 12:58:00,31.7,24.0,30.44,WSW,252,6.0,13.0,73,0.00,,,0.00,weatherlink.com 1.10,2013-01-10 17:58:00,
2013-01-10 13:13:00,31.8,24.0,30.44,West,275,2.0,10.0,73,0.00,,,0.00,weatherlink.com 1.10,2013-01-10 18:13:00,
2013-01-10 13:28:00,31.6,24.0,30.44,West,266,3.0,12.0,73,0.00,,,0.00,weatherlink.com 1.10,2013-01-10 18:28:00,
2013-01-10 13:43:00,31.6,24.0,30.45,WNW,293,8.0,15.0,72,0.00,,,0.00,weatherlink.com 1.10,2013-01-10 18:43:00,
2013-01-10 13:58:00,31.6,24.0,30.46,West,271,7.0,13.0,72,0.00,,,0.00,weatherlink.com 1.10,2013-01-10 18:58:00,
2013-01-10 14:13:00,32.0,24.0,30.46,NW,314,3.0,13.0,73,0.00,,,0.00,weatherlink.com 1.10,2013-01-10 19:13:00,
2013-01-10 14:28:00,31.9,24.0,30.47,NW,309,8.0,14.0,73,0.00,,,0.00,weatherlink.com 1.10,2013-01-10 19:28:00,
2013-01-10 14:43:00,31.5,24.0,30.47,SW,228,5.0,9.0,73,0.00,,,0.00,weatherlink.com 1.10,2013-01-10 19:43:00,
2013-01-10 14:58:00,32.4,24.0,30.48,WNW,286,2.0,9.0,71,0.00,,,0.00,weatherlink.com 1.10,2013-01-10 19:58:00,
2013-01-10 15:13:00,32.6,24.0,30.48,WNW,294,4.0,11.0,71,0.00,,,0.00,weatherlink.com 1.10,2013-01-10 20:13:00,
2013-01-10 15:28:00,32.2,24.0,30.50,WNW,285,0.0,5.0,72,0.00,,,0.00,weatherlink.com 1.10,2013-01-10 20:28:00,
2013-01-10 15:43:00,31.9,23.0,30.50,NW,313,4.0,10.0,71,0.00,,,0.00,weatherlink.com 1.10,2013-01-10 20:43:00,
2013-01-10 15:58:00,31.3,24.0,30.50,WNW,299,3.0,8.0,73,0.00,,,0.00,weatherlink.com 1.10,2013-01-10 20:58:00,
2013-01-10 16:13:00,30.5,23.0,30.50,NW,313,1.0,6.0,74,0.00,,,0.00,weatherlink.com 1.10,2013-01-10 21:13:00,
2013-01-10 16:28:00,29.9,23.0,30.52,NE,56,0.0,4.0,75,0.00,,,0.00,weatherlink.com 1.10,2013-01-10 21:28:00,
2013-01-10 16:43:00,28.9,23.0,30.52,NNW,340,1.0,6.0,77,0.00,,,0.00,weatherlink.com 1.10,2013-01-10 21:43:00,
2013-01-10 16:58:00,28.8,22.0,30.52,NW,319,2.0,7.0,77,0.00,,,0.00,weatherlink.com 1.10,2013-01-10 21:58:00,
2013-01-10 17:14:00,28.6,22.0,30.52,NW,321,1.0,3.0,77,0.00,,,0.00,weatherlink.com 1.10,2013-01-10 22:14:00,
2013-01-10 17:29:00,28.5,22.0,30.53,WNW,297,1.0,6.0,78,0.00,,,0.00,weatherlink.com 1.10,2013-01-10 22:29:00,
2013-01-10 17:44:00,28.3,23.0,30.54,NNW,328,1.0,6.0,79,0.00,,,0.00,weatherlink.com 1.10,2013-01-10 22:44:00,
2013-01-10 17:59:00,28.2,23.0,30.53,NNW,343,1.0,7.0,80,0.00,,,0.00,weatherlink.com 1.10,2013-01-10 22:59:00,
2013-01-10 18:14:00,28.1,23.0,30.52,North,8,2.0,7.0,80,0.00,,,0.00,weatherlink.com 1.10,2013-01-10 23:14:00,
2013-01-10 18:29:00,28.0,23.0,30.53,NNW,345,1.0,9.0,80,0.00,,,0.00,weatherlink.com 1.10,2013-01-10 23:29:00,
2013-01-10 18:44:00,27.8,22.0,30.54,West,278,1.0,7.0,80,0.00,,,0.00,weatherlink.com 1.10,2013-01-10 23:44:00,
2013-01-10 18:59:00,27.6,22.0,30.54,ENE,72,4.0,5.0,80,0.00,,,0.00,weatherlink.com 1.10,2013-01-10 23:59:00,
2013-01-10 19:14:00,27.5,22.0,30.54,WSW,253,1.0,7.0,80,0.00,,,0.00,weatherlink.com 1.10,2013-01-11 00:14:00,
2013-01-10 19:29:00,27.3,22.0,30.54,NE,41,0.0,6.0,80,0.00,,,0.00,weatherlink.com 1.10,2013-01-11 00:29:00,
2013-01-10 19:44:00,27.1,22.0,30.54,NW,322,0.0,4.0,81,0.00,,,0.00,weatherlink.com 1.10,2013-01-11 00:44:00,
2013-01-10 19:59:00,26.9,22.0,30.54,NE,46,0.0,2.0,81,0.00,,,0.00,weatherlink.com 1.10,2013-01-11 00:59:00,
2013-01-10 20:14:00,27.0,22.0,30.54,NW,322,2.0,5.0,81,0.00,,,0.00,weatherlink.com 1.10,2013-01-11 01:14:00,
2013-01-10 20:29:00,26.7,22.0,30.53,NW,309,1.0,4.0,81,0.00,,,0.00,weatherlink.com 1.10,2013-01-11 01:29:00,
2013-01-10 20:44:00,26.5,21.0,30.54,East,94,0.0,3.0,81,0.00,,,0.00,weatherlink.com 1.10,2013-01-11 01:44:00,
2013-01-10 20:59:00,26.3,21.0,30.54,NNW,330,0.0,3.0,81,0.00,,,0.00,weatherlink.com 1.10,2013-01-11 01:59:00,
2013-01-10 21:14:00,26.1,21.0,30.54,West,262,0.0,5.0,81,0.00,,,0.00,weatherlink.com 1.10,2013-01-11 02:14:00,
2013-01-10 21:29:00,25.7,21.0,30.55,ENE,65,0.0,2.0,81,0.00,,,0.00,weatherlink.com 1.10,2013-01-11 02:29:00,
2013-01-10 21:44:00,24.8,21.0,30.55,NNE,27,0.0,1.0,84,0.00,,,0.00,weatherlink.com 1.10,2013-01-11 02:44:00,
2013-01-10 21:59:00,24.5,20.0,30.54,ENE,63,0.0,2.0,84,0.00,,,0.00,weatherlink.com 1.10,2013-01-11 02:59:00,
2013-01-10 22:14:00,24.6,21.0,30.53,NNE,32,0.0,4.0,85,0.00,,,0.00,weatherlink.com 1.10,2013-01-11 03:14:00,
2013-01-10 22:29:00,25.1,21.0,30.54,SE,127,0.0,1.0,85,0.00,,,0.00,weatherlink.com 1.10,2013-01-11 03:29:00,
2013-01-10 22:44:00,25.1,21.0,30.53,East,96,0.0,1.0,84,0.00,,,0.00,weatherlink.com 1.10,2013-01-11 03:44:00,
2013-01-10 22:59:00,24.9,21.0,30.53,East,96,0.0,1.0,86,0.00,,,0.00,weatherlink.com 1.10,2013-01-11 03:59:00,
2013-01-10 23:14:00,23.9,20.0,30.53,East,84,1.0,2.0,85,0.00,,,0.00,weatherlink.com 1.10,2013-01-11 04:14:00,
2013-01-10 23:29:00,23.7,20.0,30.53,ENE,75,0.0,1.0,87,0.00,,,0.00,weatherlink.com 1.10,2013-01-11 04:29:00,
2013-01-10 23:44:00,23.7,21.0,30.54,ENE,75,0.0,1.0,88,0.00,,,0.00,weatherlink.com 1.10,2013-01-11 04:44:00,
2013-01-10 23:59:00,23.1,20.0,30.55,ENE,74,0.0,1.0,87,0.00,,,0.00,weatherlink.com 1.10,2013-01-11 04:59:00,